Theta_e
352 353 353 353 353 354 354 354 352 352 353 352 347 341 342 347 350 350 350 351 351 351 352 352 352 351 351 351 351 351 352 352 353 353 352 352 352 353 354 352 351 352 352 352 352 352 352 350 346 342 340 340 342 344 347 350 351 351 350 350 350 352 351 351 351 350 350 349 349 349 349 349 350 351 352 352 352 353 352 352 351 351 352 352 350
352 352 353 352 353 355 354 355 354 353 352 350 346 342 345 349 350 350 350 351 351 352 353 352 352 352 353 352 352 352 352 352 353 353 353 353 353 353 354 352 352 353 353 353 352 352 351 350 347 344 343 342 341 342 345 349 351 350 350 349 350 350 348 348 348 348 347 345 346 346 347 348 350 352 352 352 351 352 352 351 351 351 352 351 349
352 352 353 352 352 354 354 355 355 353 352 352 348 344 348 350 350 349 350 350 351 352 352 352 352 352 352 352 352 353 353 353 353 353 354 354 354 354 354 353 353 353 353 353 352 352 351 350 349 347 346 345 345 343 344 349 350 349 348 347 348 347 346 347 347 347 347 347 346 346 347 348 350 350 351 351 351 352 352 352 351 351 352 350 348
351 352 353 353 352 354 355 355 355 353 353 353 348 345 349 349 349 349 349 350 350 351 351 351 352 352 351 352 352 353 353 354 354 353 353 353 354 354 354 354 353 353 353 352 352 352 351 350 349 349 349 348 347 345 345 348 350 350 349 348 346 346 347 348 348 349 348 348 347 346 347 348 350 349 348 350 351 352 352 352 352 351 350 349 349
351 352 354 355 354 355 355 355 355 354 353 350 346 347 349 349 349 349 349 350 351 351 351 351 351 351 351 351 352 353 353 354 354 353 353 353 353 353 353 353 353 354 353 353 352 352 352 351 350 350 350 349 347 345 344 346 350 350 349 349 348 347 347 348 349 349 349 348 348 347 347 348 349 349 348 349 351 351 350 352 352 351 350 350 350
351 352 354 355 355 355 355 356 355 354 352 346 346 349 349 349 349 349 350 351 351 351 351 350 350 350 350 351 351 352 353 353 353 353 352 353 353 353 353 353 353 353 353 353 353 352 352 352 350 350 351 351 348 345 342 342 347 349 349 349 349 347 347 348 348 347 348 348 349 349 348 348 349 350 349 349 351 350 350 352 352 350 350 350 350
351 353 353 354 355 355 356 356 355 353 348 344 347 349 348 348 349 349 350 351 351 350 350 350 350 349 350 350 351 352 353 352 353 353 353 353 353 353 353 352 352 353 353 352 352 352 352 352 351 351 351 351 349 347 342 338 341 347 348 348 348 347 347 348 347 347 347 348 348 348 348 347 348 350 350 349 350 350 351 352 351 350 350 350 350
351 353 354 354 355 355 356 355 354 351 345 345 348 348 348 349 349 350 350 350 350 350 350 350 350 350 350 350 351 352 352 352 352 352 352 353 353 353 353 352 352 353 353 352 352 351 352 352 352 352 351 350 349 347 343 337 336 342 345 348 350 348 347 347 347 347 347 348 348 348 347 346 347 348 349 349 349 350 350 350 350 349 350 350 350
353 354 354 355 355 355 355 354 354 348 343 347 349 348 349 350 350 350 350 350 349 349 350 349 349 350 351 351 351 352 352 352 352 352 352 352 352 352 352 352 353 353 353 352 351 352 352 352 352 351 350 349 349 348 344 338 336 339 344 349 351 349 348 348 347 347 348 349 348 348 348 347 346 347 348 349 348 348 349 349 349 350 351 350 349
354 354 355 355 355 355 354 354 353 346 344 348 348 348 350 350 350 350 350 350 349 349 349 349 350 351 351 352 352 352 352 352 352 352 352 352 352 352 352 352 353 353 353 352 352 352 352 352 351 350 351 349 349 349 345 340 340 343 347 350 351 350 349 348 347 348 350 349 348 349 348 347 347 348 348 348 348 348 348 348 349 350 350 349 349
356 355 355 355 355 355 354 355 352 345 344 348 348 348 349 350 349 350 350 350 349 349 348 349 351 352 352 352 352 352 352 351 351 352 352 353 353 352 352 351 351 352 353 352 353 353 352 353 352 351 351 350 349 349 345 341 344 347 349 350 350 350 350 348 347 348 350 350 349 348 347 346 348 348 348 348 349 348 348 348 349 349 349 349 349
357 355 354 355 355 354 355 356 351 344 345 346 347 348 348 349 349 349 350 349 349 349 349 350 351 352 352 352 351 350 351 351 351 352 353 354 354 353 353 351 350 350 351 352 353 353 352 352 352 352 352 351 350 349 345 341 344 347 347 349 350 350 349 348 348 348 350 351 349 346 345 346 348 348 348 349 349 348 347 347 347 346 348 349 349
356 355 354 354 355 355 356 355 349 343 345 346 346 347 349 349 349 348 349 348 348 349 350 351 351 352 351 350 349 348 348 350 352 353 354 354 354 353 352 352 351 350 349 350 352 352 353 352 352 352 351 350 350 350 346 341 343 346 347 348 349 350 349 347 348 349 350 350 347 344 344 346 348 348 348 348 348 348 347 346 346 345 346 346 347
356 354 353 353 354 355 356 354 347 343 344 345 346 348 348 349 348 348 348 348 347 348 349 350 350 350 349 347 345 346 346 347 349 350 351 352 352 352 352 352 352 351 350 350 351 351 352 352 352 351 350 350 350 350 347 341 342 346 348 349 348 349 350 348 347 348 349 349 346 344 344 346 347 347 347 347 348 348 348 348 347 346 345 345 346
355 353 352 353 354 355 356 353 346 343 343 342 346 349 348 348 348 348 347 347 346 346 346 347 348 347 346 343 342 345 346 346 345 344 345 348 349 349 348 349 351 351 351 351 351 351 351 352 352 351 350 350 349 349 348 343 342 345 349 351 349 348 349 348 348 348 348 347 345 344 344 346 347 347 348 348 348 348 348 349 348 347 346 347 347
354 352 352 353 354 355 355 352 347 343 342 342 346 349 348 348 348 347 345 345 345 344 344 344 344 343 342 341 342 347 349 349 349 347 346 346 345 344 343 345 347 349 350 350 350 351 351 351 350 350 350 349 349 349 347 343 343 346 349 351 351 349 348 347 347 348 348 346 344 344 344 346 346 347 348 348 349 348 348 348 348 348 347 348 348
353 352 353 354 355 356 354 352 348 344 342 344 348 349 348 347 347 346 345 345 344 343 344 343 342 340 340 339 342 347 350 350 351 351 351 350 346 343 343 343 344 346 347 347 349 349 349 348 347 347 347 347 347 347 346 344 345 349 350 350 350 349 348 346 346 348 348 347 344 343 344 345 346 346 347 347 346 346 346 347 347 348 347 347 347
354 353 353 355 355 355 353 351 348 343 344 347 348 347 346 346 346 345 345 344 342 342 343 343 341 340 338 338 340 344 346 345 345 346 349 351 349 345 344 345 345 345 345 345 346 347 347 345 344 344 344 344 345 345 344 344 347 350 351 350 349 348 349 346 345 347 349 347 344 342 343 344 346 346 346 345 344 343 344 345 346 346 347 347 347
354 354 354 354 354 354 352 349 346 344 346 347 348 348 346 345 344 344 344 343 342 341 341 342 341 339 338 337 338 341 342 342 343 344 344 346 346 344 345 346 347 347 346 345 345 346 345 344 344 343 343 343 343 343 343 343 345 349 351 351 349 348 348 346 346 348 348 347 344 343 344 344 345 345 345 344 343 343 343 343 344 344 345 346 346
355 355 355 354 354 353 350 347 345 345 345 345 347 348 346 343 343 342 343 342 342 341 341 340 340 340 338 335 337 340 341 343 344 343 343 340 341 341 343 345 346 347 346 346 347 346 346 346 345 343 342 342 341 342 343 343 344 347 350 350 350 348 346 346 347 347 346 345 344 344 344 344 345 345 344 344 343 343 342 341 341 342 343 345 345
354 355 355 354 354 352 348 345 345 345 344 344 345 345 345 343 342 342 342 342 341 341 341 340 340 339 338 340 344 347 347 347 347 346 342 338 339 340 341 343 344 345 346 347 349 349 347 347 347 344 343 342 341 342 342 344 346 348 350 351 351 349 347 346 348 347 344 342 344 344 344 344 345 345 343 343 344 343 340 339 339 340 341 343 345
354 354 354 354 355 351 346 344 345 345 344 344 344 344 344 343 342 341 341 341 341 341 341 340 340 338 341 348 353 353 352 351 352 352 346 337 337 338 339 342 342 344 346 348 349 349 348 347 348 347 346 344 341 341 342 345 347 348 349 350 351 350 348 348 348 348 343 339 343 344 344 344 344 345 344 343 344 343 340 338 339 339 339 341 343
353 354 353 354 354 349 348 346 346 349 345 343 343 343 343 342 341 341 341 341 341 341 341 341 340 338 343 352 355 354 353 352 354 355 349 340 338 338 339 342 344 346 346 347 348 349 348 348 349 348 348 346 343 342 343 345 347 348 349 349 349 349 350 349 348 348 343 338 342 345 344 344 344 345 345 344 344 344 342 340 340 339 338 338 341
353 354 353 354 352 350 351 347 349 353 346 341 343 342 342 341 340 340 340 341 341 341 341 342 342 340 344 351 353 354 353 351 353 355 351 345 342 340 339 343 347 349 347 347 349 349 349 350 349 348 347 347 344 344 344 345 347 347 348 348 348 348 349 349 348 348 343 336 340 344 344 344 344 345 345 344 344 344 342 341 341 339 338 338 339
353 353 353 354 352 352 354 349 352 354 346 342 341 341 341 340 340 339 339 341 341 341 343 347 348 346 347 351 352 352 352 350 351 352 351 350 349 345 343 347 350 351 349 349 350 349 350 351 348 347 348 348 347 346 346 346 346 347 348 349 349 348 348 348 347 345 341 336 337 342 345 345 345 345 344 344 344 343 342 342 342 341 339 338 339
354 353 352 353 352 354 354 352 353 353 350 344 339 340 340 339 339 338 338 339 340 342 348 352 353 351 351 354 353 351 352 350 347 350 352 353 353 351 350 353 352 350 350 351 350 349 350 351 349 348 349 350 349 348 346 347 347 347 348 349 349 348 346 346 346 344 341 338 336 339 343 345 345 345 345 344 343 342 342 343 343 343 342 340 339
352 352 352 353 353 355 353 353 353 352 353 348 340 339 339 339 340 340 340 341 343 347 351 353 353 354 353 354 353 350 352 350 346 349 353 353 354 354 353 354 353 350 350 350 350 349 350 352 350 350 351 350 350 348 347 347 346 346 347 348 349 346 344 345 345 343 340 339 337 338 341 343 345 345 344 344 343 343 343 343 344 345 344 343 340
352 351 352 353 353 355 353 353 352 351 353 351 343 338 340 345 344 347 348 346 349 350 352 353 352 354 354 354 352 350 352 351 348 349 351 351 352 353 352 353 352 351 351 350 349 349 350 352 352 351 351 351 350 349 348 346 344 344 344 346 348 345 343 344 342 339 337 338 338 338 339 342 344 345 345 345 345 344 343 344 345 346 345 344 343
351 352 352 353 353 354 353 352 352 352 352 353 347 339 344 351 348 350 352 350 351 351 352 353 352 353 353 353 352 351 352 351 351 350 350 350 351 351 351 351 351 351 351 350 350 350 351 352 353 352 350 351 351 350 348 346 344 343 342 344 345 343 343 343 340 336 333 335 337 339 340 340 343 346 346 346 346 345 344 344 345 346 345 344 344
351 352 353 352 353 353 353 352 352 353 351 353 351 342 345 352 349 350 352 351 351 351 352 353 353 353 352 353 353 352 352 351 352 352 351 350 351 352 351 351 351 351 351 350 350 351 351 352 353 352 350 350 351 349 348 347 345 344 342 343 343 342 344 342 340 337 333 334 336 338 341 340 342 345 346 347 347 346 345 346 345 345 345 345 344
352 353 353 352 352 353 353 353 352 352 351 351 352 346 345 350 350 349 350 351 351 351 352 352 353 353 352 353 354 353 352 351 352 352 352 352 353 353 352 351 351 351 350 349 350 350 351 353 353 352 350 350 350 349 348 347 345 345 343 342 342 342 343 342 340 338 335 334 335 338 341 342 342 344 345 346 347 347 347 347 346 346 346 345 344
354 354 354 353 352 352 353 353 352 352 351 351 353 348 344 349 350 349 350 350 350 352 353 352 353 353 352 353 354 354 353 352 353 353 354 354 354 353 353 352 352 352 352 351 351 351 352 352 351 352 352 351 351 350 348 347 345 345 343 342 342 342 343 343 341 339 336 335 335 337 341 342 343 344 344 345 347 348 348 348 347 346 347 346 345
355 354 355 354 352 352 352 353 353 352 351 350 352 350 344 348 350 349 350 351 351 353 353 352 353 354 353 352 352 353 354 354 354 354 354 355 354 354 353 353 353 353 353 353 352 352 352 351 351 353 353 351 351 351 348 346 346 345 344 343 341 341 342 343 343 341 338 336 336 337 339 342 343 344 344 345 346 348 348 348 348 347 347 346 346
355 355 355 355 353 352 352 353 352 351 352 350 352 351 346 349 350 349 351 351 352 353 353 353 353 353 353 353 351 351 355 355 354 354 355 355 355 355 354 354 354 353 353 354 353 352 351 351 351 353 353 351 351 352 350 347 346 345 344 343 339 338 341 344 345 343 339 338 337 337 338 340 340 341 343 344 346 347 347 347 347 347 347 346 346
355 355 355 355 354 353 352 353 353 352 353 351 352 351 348 349 351 349 352 352 352 352 353 353 353 353 353 354 353 351 353 355 355 355 355 355 355 355 355 354 353 354 355 355 355 353 351 352 352 352 353 351 352 353 351 347 346 346 344 341 340 338 339 343 345 343 341 340 341 341 340 339 339 338 339 342 344 346 347 348 347 347 347 346 346
355 354 354 354 354 354 354 354 353 352 352 352 351 351 350 350 351 352 354 354 352 352 353 353 353 353 353 354 354 351 351 355 355 353 355 356 355 355 354 354 355 355 356 355 355 355 353 353 353 352 353 353 353 353 352 348 346 347 343 341 341 340 341 343 345 343 343 343 344 345 344 343 342 339 337 338 341 343 345 347 347 347 347 346 346
354 354 354 355 354 354 355 354 354 352 351 352 352 351 351 351 352 354 355 355 353 351 352 353 352 353 354 354 355 352 349 353 355 351 353 356 355 355 355 355 356 355 355 355 356 355 354 354 354 353 354 354 353 352 351 349 347 347 344 343 342 340 342 344 344 344 343 343 344 345 345 345 345 343 340 338 338 340 343 345 346 347 347 346 346
353 354 354 354 354 354 355 355 355 353 350 353 353 352 352 351 353 355 355 355 354 352 351 352 352 353 354 354 354 354 348 349 354 351 350 355 355 355 356 356 356 355 354 355 356 355 354 353 354 355 355 354 353 352 351 349 347 347 345 345 342 338 341 343 343 343 343 343 343 343 344 344 345 344 344 342 339 338 340 343 346 346 346 346 345
352 353 354 354 354 354 355 355 356 354 351 353 353 352 354 353 353 355 355 354 354 354 352 351 353 352 353 354 353 354 349 346 354 353 349 354 356 355 356 356 355 355 354 355 356 355 355 354 355 356 355 355 355 353 351 348 347 346 345 344 341 338 339 341 342 342 342 343 342 342 343 343 343 343 345 344 341 340 340 341 343 344 344 343 343
352 353 354 354 354 354 353 354 356 354 352 353 354 354 354 354 354 354 355 354 353 354 353 351 352 352 351 353 353 354 352 345 351 355 349 352 356 354 355 355 355 355 354 355 356 356 355 355 356 355 355 356 356 354 350 347 346 346 345 342 339 339 338 338 341 342 342 342 342 342 342 343 342 343 344 344 343 343 344 343 342 342 342 342 342
351 352 353 354 354 354 353 355 355 355 353 354 355 355 355 355 354 354 355 355 352 353 354 351 352 352 350 352 351 352 353 346 347 352 350 349 354 355 354 355 355 355 353 354 356 355 355 356 356 355 355 356 356 353 350 348 346 345 345 342 339 338 337 337 339 340 341 340 342 342 342 342 343 344 344 343 343 343 343 345 344 342 341 340 341
351 352 353 354 354 354 354 355 356 355 354 355 356 355 355 355 354 354 354 354 353 352 354 352 350 351 350 350 350 351 353 349 344 348 349 346 350 355 355 354 355 354 354 355 356 356 356 356 356 355 355 356 355 353 351 348 346 344 343 343 341 338 337 337 339 339 340 340 341 342 342 342 343 344 344 342 342 342 341 341 342 342 341 340 340
351 352 353 354 354 354 354 355 357 355 355 356 356 355 355 355 354 354 354 354 353 352 353 352 351 350 351 351 351 350 351 351 347 347 350 346 346 354 356 355 355 355 356 358 358 358 358 357 356 356 357 357 356 353 351 348 347 345 344 347 347 342 340 338 338 339 339 340 340 339 339 341 344 345 344 343 342 342 342 340 340 341 341 340 341
351 352 353 353 353 354 355 355 356 356 356 356 356 356 356 355 355 354 354 354 353 353 352 352 351 350 351 352 351 351 351 352 350 349 352 349 346 351 355 355 356 357 357 358 358 357 357 358 358 358 358 357 356 354 351 348 348 347 347 351 348 345 346 341 335 337 339 339 339 338 338 338 342 343 342 342 342 342 343 342 341 341 342 341 341
352 353 353 353 354 354 354 355 356 356 356 357 357 356 356 356 356 355 354 354 354 353 353 352 352 351 353 353 352 352 352 352 352 352 353 352 349 350 351 353 356 358 356 357 359 358 358 359 360 359 357 356 355 353 351 347 347 346 345 351 349 350 357 345 334 337 338 339 339 337 337 337 337 339 340 340 341 341 342 343 343 343 343 342 341
353 354 352 352 354 353 353 354 355 357 356 357 356 356 357 356 356 355 354 354 354 354 354 353 351 352 354 354 352 353 353 353 354 354 354 353 352 351 350 352 355 357 355 356 358 358 360 361 360 360 357 355 354 352 352 348 347 346 342 345 347 351 354 343 341 346 339 336 339 337 336 337 337 337 338 338 339 339 338 340 342 342 342 341 341
353 355 353 353 353 353 354 354 355 357 357 356 356 356 356 356 355 355 354 354 355 353 353 353 352 351 353 354 353 353 354 354 354 355 355 353 353 353 352 353 356 357 357 357 356 358 360 360 359 359 357 356 353 352 352 348 345 346 342 341 342 345 344 340 346 353 347 340 337 337 337 337 337 336 336 336 338 338 337 338 341 341 341 341 341
354 355 354 353 353 353 354 354 355 356 357 356 356 356 356 355 354 355 354 353 354 354 352 353 353 352 353 354 354 354 354 354 355 356 356 355 354 354 352 354 359 360 360 357 355 357 361 360 359 359 357 356 354 352 352 347 344 344 342 341 342 342 342 341 342 347 355 354 342 338 338 336 336 337 336 336 336 338 338 340 340 340 341 341 340
354 354 355 355 354 354 353 354 355 355 356 356 356 356 356 355 354 354 354 353 353 354 353 352 353 353 353 353 354 354 354 354 355 356 357 356 355 355 353 356 361 361 361 360 357 358 361 360 360 359 357 356 354 353 352 348 345 343 339 341 343 341 342 342 340 340 350 356 350 342 338 337 338 337 336 336 335 337 339 341 341 340 340 339 338
354 355 355 356 354 355 355 354 355 355 356 356 356 356 354 355 354 353 354 353 353 355 354 352 353 354 353 353 354 355 355 356 356 356 358 357 356 356 355 356 361 361 360 361 359 359 361 360 360 359 358 356 353 353 353 348 346 344 339 341 343 341 341 341 342 341 341 345 350 346 338 338 340 338 338 336 335 338 340 340 340 339 339 337 338
354 355 356 356 356 356 356 356 356 356 356 356 356 355 354 354 354 353 353 354 354 355 356 354 353 354 355 352 353 356 356 357 356 356 357 357 356 356 356 356 360 361 360 361 359 359 361 360 360 359 358 357 353 352 352 348 347 346 340 340 342 340 341 340 340 342 341 341 347 348 341 339 339 338 339 339 337 338 339 339 338 338 338 337 338
Wind_Speed
20 21 21 22 23 22 25 26 25 25 25 25 25 26 24 23 23 24 24 24 24 24 23 24 24 24 23 23 23 22 22 21 21 20 20 20 20 20 18 18 18 18 19 18 18 17 16 16 16 15 16 16 16 16 15 15 14 14 14 15 17 17 18 18 18 18 17 16 16 16 15 15 16 14 13 13 12 13 13 14 15 15 16 15 16
23 22 21 23 24 23 24 26 25 25 25 25 25 25 23 23 23 24 24 24 24 23 23 23 24 23 23 23 23 22 21 21 21 20 20 20 20 20 19 19 18 18 18 17 17 17 16 16 15 15 16 16 16 16 16 16 15 15 15 16 17 18 19 19 19 18 18 17 17 16 15 16 15 13 12 12 12 13 14 15 15 16 17 17 18
25 24 22 23 25 24 24 26 26 25 25 24 25 25 23 23 23 24 24 24 23 23 23 23 23 23 23 23 22 22 21 20 20 20 20 19 19 19 19 19 19 18 18 17 17 16 16 16 15 15 15 16 16 16 16 16 16 16 17 18 18 18 19 19 18 18 17 17 17 16 16 16 15 13 13 13 13 14 14 15 16 17 17 19 20
26 25 24 23 24 25 25 26 25 25 25 24 25 24 23 23 23 23 24 23 23 23 23 23 22 22 22 22 21 21 20 20 19 19 19 18 18 18 18 19 18 18 18 18 17 16 16 15 15 15 15 15 16 16 16 16 16 17 18 18 18 17 17 18 17 17 17 16 17 17 17 17 15 14 14 14 14 15 16 16 17 18 18 20 20
27 25 25 23 23 25 26 26 25 25 25 25 25 24 24 24 23 23 23 23 23 23 22 22 22 22 22 21 21 20 20 19 18 18 18 18 17 17 17 18 18 18 18 18 17 16 16 15 15 15 14 15 15 16 16 17 17 17 18 18 17 17 17 18 17 17 17 17 17 18 18 18 16 15 15 15 15 16 17 17 17 18 18 19 19
28 26 26 25 24 25 25 25 24 24 25 25 25 24 24 24 23 23 23 23 23 22 22 22 22 22 21 20 20 19 19 19 18 18 18 18 17 17 17 17 17 17 17 17 17 16 15 15 15 14 14 14 15 16 16 17 17 18 18 17 17 17 17 17 17 17 18 18 17 16 16 17 17 15 15 17 16 16 17 17 18 19 18 18 19
28 28 26 26 26 26 26 24 23 25 25 26 25 24 24 24 23 23 23 23 22 22 21 21 21 21 20 19 19 18 18 18 18 17 17 17 17 17 17 17 17 17 17 16 16 16 16 15 15 14 13 14 14 15 16 17 18 18 17 17 16 16 16 16 17 17 17 18 17 15 14 16 17 15 15 17 16 16 17 17 18 19 18 18 19
28 29 27 27 26 26 26 24 24 24 26 25 24 24 24 23 23 23 23 22 22 22 21 21 20 20 19 19 18 18 17 17 17 17 17 17 17 16 16 17 17 17 16 16 16 16 16 15 14 14 14 14 14 15 16 17 19 18 17 16 15 15 16 16 17 16 16 18 17 15 14 15 16 16 15 15 17 17 18 17 17 18 18 18 18
28 28 28 28 27 26 25 24 24 25 26 25 24 24 24 23 22 23 22 22 21 21 20 20 20 19 18 18 18 17 17 17 17 17 17 16 16 16 16 16 16 16 16 15 15 15 15 14 14 14 14 14 14 15 16 18 19 18 16 15 14 15 16 17 17 17 17 17 17 15 14 15 16 15 14 15 16 17 18 17 17 17 16 17 18
28 27 29 27 27 27 25 24 24 25 25 24 24 24 23 22 22 22 22 21 21 20 20 20 19 19 18 18 18 17 17 17 17 17 17 17 16 16 16 16 16 16 15 15 15 14 14 14 14 14 14 14 15 15 16 17 18 17 15 14 14 14 15 16 18 19 18 17 16 14 13 14 15 14 14 14 15 16 16 17 17 17 15 16 17
28 27 28 28 28 26 25 24 24 25 25 24 24 23 23 22 22 22 21 21 21 20 20 19 19 19 18 18 18 18 17 18 18 18 18 17 16 17 16 16 16 15 15 14 14 14 14 13 13 13 13 13 14 15 16 17 17 17 15 14 14 14 14 16 18 19 17 16 15 14 13 14 15 14 14 14 15 16 16 16 16 16 15 15 16
27 28 29 29 28 26 25 23 24 25 24 24 23 23 23 22 22 21 21 21 21 20 19 19 19 18 18 18 18 18 18 18 18 18 17 16 16 17 16 16 15 15 15 14 14 13 13 13 13 13 13 13 13 14 16 16 16 17 16 14 14 14 15 16 17 18 17 15 13 14 15 15 15 14 14 14 15 16 15 15 15 15 14 14 15
28 29 30 29 27 26 24 23 25 25 24 23 23 23 22 22 22 21 21 20 20 20 19 19 18 18 18 18 18 18 18 18 17 17 17 16 16 16 16 16 15 15 14 14 13 13 12 12 12 12 12 13 13 14 15 16 16 17 17 14 14 14 14 15 16 16 15 14 13 14 15 16 16 15 14 14 14 15 15 15 14 13 13 13 13
30 30 32 29 27 25 24 24 25 25 24 23 23 22 22 21 21 21 20 20 20 19 19 18 18 18 18 18 18 18 18 18 17 17 16 16 16 16 16 16 15 15 14 14 13 13 12 12 12 12 12 12 12 13 14 15 16 16 15 13 13 14 13 13 13 14 14 13 12 14 15 16 16 16 15 15 14 14 14 13 13 13 13 12 12
32 33 32 30 27 25 24 24 25 25 23 23 22 21 21 21 20 20 20 19 19 19 18 18 17 18 18 17 18 18 18 18 17 17 17 16 16 16 15 15 15 14 14 14 13 13 12 12 11 11 11 11 11 11 12 14 15 16 14 12 13 14 13 13 12 13 13 13 13 13 15 16 16 16 16 15 15 14 14 12 12 12 12 12 12
34 35 33 30 28 25 24 24 25 24 23 23 21 21 21 20 20 19 19 19 18 18 18 17 17 17 17 17 17 17 17 17 17 16 16 16 16 16 16 15 15 14 14 14 13 13 12 11 11 10 10 10 10 10 11 13 14 15 13 12 12 13 12 11 12 13 13 12 12 13 14 15 15 15 15 15 14 14 14 13 12 12 12 11 11
34 34 33 30 28 26 25 24 24 24 23 22 21 21 20 20 19 19 19 18 17 17 17 16 16 16 16 16 16 17 17 17 16 16 16 15 15 16 16 15 15 15 14 14 13 12 12 11 11 10 10 9 9 10 11 13 13 13 13 11 12 13 12 10 11 13 13 12 12 12 14 14 14 14 14 14 13 14 14 14 13 12 11 11 11
33 33 32 31 29 27 26 25 24 23 22 21 20 20 20 20 19 18 18 17 16 16 16 16 14 14 15 15 15 16 16 15 15 15 15 15 14 15 15 15 15 15 15 14 13 13 12 11 11 11 11 10 10 10 11 12 12 12 12 11 12 13 12 11 12 13 13 11 11 12 13 14 14 13 14 13 13 13 14 14 13 13 12 11 10
31 32 31 30 29 27 26 26 25 24 23 22 21 19 19 19 18 18 17 16 16 15 16 15 14 13 13 14 14 14 14 14 14 14 14 14 13 14 14 14 14 14 14 14 14 13 12 11 11 11 12 11 11 11 11 12 12 12 12 12 12 13 12 11 12 13 12 10 11 13 13 14 14 14 13 13 13 13 13 14 13 13 13 11 11
29 30 30 29 28 27 27 27 26 25 24 23 21 20 19 18 18 17 16 16 15 15 15 14 14 13 12 13 13 13 13 13 13 13 12 12 11 13 13 13 13 13 14 13 13 12 11 11 10 11 11 12 11 11 12 13 13 13 12 13 14 13 11 11 11 11 11 10 11 12 14 14 14 14 14 14 13 13 13 13 13 13 13 12 11
27 29 29 28 27 27 29 28 26 25 24 23 22 20 19 18 17 16 16 15 15 14 14 14 13 12 12 12 12 11 11 12 11 10 10 9 10 11 12 12 12 12 12 12 11 11 10 10 10 10 10 10 11 11 11 12 13 14 13 13 14 12 11 12 11 9 9 10 11 12 13 14 14 13 14 14 13 12 12 12 13 13 12 12 11
27 28 28 28 27 29 29 28 26 25 24 23 22 21 20 19 18 16 16 15 15 14 14 13 12 12 12 12 11 9 8 9 9 9 8 8 9 10 11 11 11 11 11 11 10 10 9 9 9 9 8 8 9 10 11 11 11 13 13 13 13 11 11 12 11 7 8 9 11 12 13 14 14 13 13 13 12 12 11 12 12 12 11 11 11
28 28 28 28 29 30 29 28 27 24 24 24 23 22 21 19 18 16 15 15 15 14 14 13 12 11 12 11 11 10 8 8 8 7 7 8 8 9 10 10 11 11 10 10 10 9 8 8 8 8 8 7 8 9 10 10 10 12 13 13 12 11 11 11 9 6 7 8 10 12 13 13 13 13 13 13 12 12 11 11 11 11 11 11 10
28 28 29 29 30 31 29 29 27 25 25 25 24 22 21 19 18 17 16 15 14 14 14 13 12 10 11 10 10 10 8 8 9 7 6 7 7 8 10 10 10 10 9 9 9 8 8 7 7 8 8 7 7 7 8 9 10 11 12 12 12 11 11 9 7 7 7 8 10 11 12 13 13 13 12 12 12 11 11 10 10 10 10 10 10
29 28 29 30 31 30 29 29 28 26 25 25 25 23 22 20 19 18 16 15 15 15 14 13 11 9 10 9 8 9 8 8 10 9 7 5 6 8 9 9 8 7 7 7 8 8 7 7 8 9 9 7 5 4 4 5 8 9 10 11 11 11 11 9 7 8 9 9 10 11 12 12 12 12 11 12 12 12 11 11 10 10 10 10 10
29 28 28 31 31 30 30 30 29 27 25 26 26 24 22 21 20 18 17 15 15 14 13 12 10 9 9 8 7 9 9 9 10 10 8 5 5 7 8 8 6 5 5 6 7 7 7 8 8 8 9 6 5 4 2 1 4 7 10 11 12 12 11 10 8 9 10 10 10 11 11 12 12 12 11 11 11 11 11 11 10 10 10 9 9
29 28 28 31 31 30 31 31 30 28 25 25 26 25 23 21 20 18 16 15 14 12 11 11 10 10 10 9 9 9 10 9 9 10 9 7 6 6 7 8 6 5 5 5 6 6 7 8 7 7 5 3 3 3 2 1 2 5 11 14 15 14 11 11 10 9 10 11 11 11 11 11 12 11 11 11 10 10 11 10 10 9 9 9 9
28 28 29 31 31 31 32 32 30 29 26 24 25 26 22 20 18 17 15 13 13 12 11 11 9 10 11 9 10 10 9 9 10 10 10 8 7 7 8 9 7 5 5 5 6 6 6 6 6 5 4 3 2 2 1 1 1 2 8 16 19 15 13 12 11 10 10 11 12 12 12 11 11 11 10 10 9 9 10 9 9 9 8 8 9
27 29 30 30 30 31 32 32 30 29 27 24 24 25 23 19 18 17 16 14 13 12 12 12 9 10 11 10 10 10 9 11 12 12 10 8 8 8 8 9 7 6 5 6 7 6 5 5 5 4 3 4 4 3 2 2 2 2 5 14 19 15 14 15 12 11 10 11 12 12 12 12 11 10 10 9 9 9 9 9 9 8 8 8 8
28 29 30 31 30 30 33 32 31 29 27 26 24 24 24 21 19 17 16 17 15 12 14 15 11 11 12 11 10 8 9 11 12 13 10 9 9 8 8 8 7 6 6 5 6 5 5 5 5 4 3 3 3 4 4 3 2 1 3 9 17 15 15 16 12 12 12 12 11 12 11 11 11 10 9 9 9 8 8 8 8 8 8 7 8
29 28 29 31 30 30 32 32 31 30 28 27 24 23 24 23 20 17 16 18 17 14 15 16 12 11 13 12 10 8 9 10 12 13 11 9 9 8 8 7 6 6 5 5 6 6 5 6 4 3 3 3 3 4 4 3 2 1 2 3 12 16 17 15 14 13 13 13 12 12 12 11 12 10 9 9 9 9 8 8 8 7 7 7 7
30 30 29 31 31 31 32 31 32 30 28 27 24 22 24 22 20 18 17 18 17 15 15 15 13 12 13 13 12 11 9 10 13 13 11 9 9 8 9 7 7 7 6 6 6 5 5 5 4 2 2 3 2 2 4 3 1 0 0 1 1 13 20 15 16 16 13 13 12 12 13 12 11 10 9 9 8 9 8 8 8 7 7 7 7
30 30 30 31 31 31 31 31 32 31 28 27 24 22 24 22 20 20 18 18 17 15 14 14 14 15 16 14 13 13 11 12 13 12 11 11 10 9 10 8 7 7 5 6 5 4 3 3 3 2 2 3 3 2 3 5 2 1 1 3 5 8 20 17 17 18 14 14 13 12 13 12 11 10 9 8 8 8 8 8 8 8 8 7 7
30 31 31 31 31 31 30 30 32 32 28 26 25 23 24 22 21 22 19 18 18 15 14 15 14 16 17 15 13 14 13 13 13 11 11 11 11 10 10 9 7 6 5 5 4 2 2 3 3 3 2 3 4 3 2 4 2 0 2 1 4 6 14 20 19 18 15 14 13 12 13 12 11 9 9 9 8 9 8 8 8 8 8 8 7
30 30 32 32 31 30 30 30 32 33 29 26 26 24 24 22 21 23 19 18 19 16 15 15 15 15 16 15 13 14 15 14 14 13 11 10 11 11 10 9 7 6 7 6 3 1 1 2 3 4 3 3 3 2 3 4 3 2 0 3 4 8 10 22 21 19 16 14 13 12 13 12 11 9 8 9 9 10 9 9 9 9 9 8 8
32 31 32 33 31 31 30 29 32 34 30 27 26 25 24 23 21 22 20 18 19 18 16 15 15 15 15 14 12 14 16 15 14 14 12 9 10 11 10 9 9 8 6 5 5 3 3 4 3 3 2 2 3 2 3 5 3 2 2 3 5 8 16 25 20 19 16 13 12 12 12 11 10 9 8 8 9 10 10 10 9 9 9 8 9
34 33 33 34 32 31 31 30 32 34 31 27 27 27 25 24 22 21 21 19 19 19 18 16 16 16 14 13 12 13 16 16 14 15 14 10 9 11 11 10 9 8 6 6 6 5 4 4 4 3 3 3 4 4 5 6 4 3 2 1 5 8 20 24 19 18 15 13 13 12 12 11 10 10 9 8 8 9 10 10 10 9 9 9 9
35 34 34 34 32 32 32 30 32 35 33 28 28 27 25 24 23 21 21 20 19 19 19 17 18 18 14 13 12 12 14 17 16 15 16 12 8 10 10 10 9 7 7 7 5 4 4 4 4 5 4 3 3 5 7 6 3 3 1 0 2 7 15 21 18 16 14 13 13 11 12 12 10 10 9 9 8 8 9 10 10 9 9 9 9
35 34 35 34 32 33 33 31 32 34 32 29 28 27 25 24 23 21 21 21 20 19 18 17 19 19 15 14 14 12 12 16 17 15 16 14 9 9 9 9 9 7 8 8 6 5 5 5 5 5 5 3 3 5 8 8 5 4 1 1 3 6 9 17 18 15 13 12 13 12 12 12 11 11 10 9 9 7 7 8 9 10 9 9 8
36 36 36 35 33 33 33 32 33 34 32 29 29 28 26 25 24 22 21 23 22 20 19 18 18 19 18 17 16 15 12 14 18 16 16 16 12 10 9 9 9 9 8 8 7 7 6 6 6 5 5 5 5 6 9 9 7 7 4 2 4 5 6 11 14 14 12 12 13 12 12 14 13 12 12 11 9 7 7 7 8 8 9 9 9
36 36 38 37 34 34 34 33 34 35 33 31 31 30 29 27 26 24 22 23 24 21 19 19 18 18 20 20 17 17 14 13 17 18 17 17 14 10 10 9 9 9 9 7 7 6 6 8 7 6 6 7 7 8 8 8 7 8 6 2 4 5 6 8 10 12 13 13 13 13 14 16 15 14 13 12 11 9 7 7 7 6 7 8 9
35 36 39 38 36 34 34 34 35 36 34 33 33 31 30 29 27 26 24 23 24 23 20 19 20 18 18 21 19 18 16 13 16 18 17 17 16 12 11 11 10 10 9 8 7 6 6 8 8 7 7 7 7 9 9 7 7 9 7 3 2 4 5 6 8 11 13 13 13 16 17 17 18 16 15 13 12 9 8 7 6 5 6 6 7
36 36 38 39 37 35 33 33 35 36 35 33 33 32 31 30 28 26 25 23 23 25 21 18 20 19 17 20 21 19 17 15 15 18 17 17 17 15 13 12 12 10 10 9 8 7 7 8 8 7 7 7 6 8 9 7 7 8 7 3 1 2 2 5 8 9 12 13 14 18 19 19 20 18 16 15 13 11 9 8 7 6 6 6 6
35 34 37 38 37 37 36 35 35 37 37 34 33 32 30 30 27 24 24 23 22 23 21 18 18 20 19 20 22 20 18 16 16 18 18 18 18 18 15 14 13 11 11 11 9 9 8 9 9 8 9 9 8 8 9 9 7 6 6 2 2 3 0 6 9 8 11 14 14 18 19 19 20 20 17 15 14 13 12 10 8 7 7 6 5
35 35 38 38 36 38 39 37 37 37 38 36 34 32 29 29 27 24 22 22 23 24 23 22 20 20 22 24 24 21 19 17 16 18 19 19 18 18 18 16 15 13 13 12 10 10 9 10 11 11 10 10 9 9 9 10 9 6 6 4 3 2 2 4 5 5 8 13 14 18 21 20 19 20 19 17 16 15 13 12 10 9 8 7 4
35 36 40 39 36 38 39 38 38 37 38 38 36 33 30 30 30 27 26 24 25 28 27 27 26 23 22 25 25 22 20 17 17 19 19 20 19 18 19 17 16 15 14 13 11 11 10 10 12 12 11 9 10 11 10 10 10 7 6 6 3 2 3 4 4 2 3 9 17 22 22 19 18 20 20 18 16 14 13 13 13 11 9 8 6
34 36 38 39 37 36 38 39 39 37 38 38 38 36 32 33 32 31 30 26 25 29 30 29 29 26 23 24 25 23 21 19 19 20 20 20 20 19 19 18 17 16 15 14 12 12 11 10 11 12 12 10 10 13 11 10 11 8 6 6 3 1 1 4 4 3 3 6 16 22 20 17 15 16 19 17 14 12 12 13 13 12 10 9 7
34 35 36 38 38 38 37 39 39 37 38 39 40 38 34 34 34 31 31 29 26 28 31 29 27 27 24 23 25 25 23 22 22 22 21 21 21 21 19 18 18 16 15 14 12 12 11 10 12 12 12 12 12 13 12 12 12 10 10 9 5 2 2 4 3 4 4 3 8 13 17 16 13 14 15 15 14 12 14 15 13 14 11 9 8
34 35 36 38 38 39 38 38 38 37 38 39 40 40 37 35 35 33 30 30 27 26 29 30 26 26 26 24 25 27 26 24 23 23 23 22 22 22 20 20 20 17 16 15 13 13 12 12 13 14 14 14 14 13 11 14 13 10 13 12 7 5 4 3 3 4 5 4 3 5 11 13 11 13 15 15 16 14 15 15 15 15 13 10 10
34 35 36 36 37 37 38 38 38 37 38 40 41 41 39 36 35 34 32 30 28 24 26 30 28 25 27 27 26 28 29 26 24 25 25 24 24 23 21 21 22 20 17 15 13 14 14 14 14 15 15 14 15 13 10 13 13 10 13 14 10 7 5 3 3 4 5 4 3 4 12 14 11 13 15 16 18 16 16 17 17 15 12 11 11
33 35 35 35 37 36 37 39 39 38 38 40 41 41 40 38 37 36 34 32 30 27 25 30 31 27 28 30 28 28 30 28 25 25 26 26 25 25 23 22 22 22 20 17 15 15 15 15 15 16 16 14 14 14 11 12 12 11 14 15 13 10 7 7 7 6 5 4 3 2 9 15 15 15 14 13 17 20 17 17 17 13 12 13 13
Wind_Direction
155 145 142 143 139 139 136 133 133 131 127 125 123 123 119 116 115 114 113 111 110 108 109 108 107 107 106 107 106 106 105 106 107 109 111 112 112 110 109 107 106 105 104 104 105 103 102 103 103 102 99 99 98 96 95 95 98 101 104 109 113 109 104 100 95 94 93 94 94 93 94 93 89 89 93 96 98 99 101 105 107 107 104 104 106
154 146 142 143 140 140 137 134 133 130 128 125 124 125 121 118 117 115 114 111 111 109 108 106 105 106 105 106 106 106 107 108 109 110 110 110 110 109 108 106 104 103 103 103 104 105 106 107 106 103 100 99 98 96 95 94 96 100 103 107 108 104 100 98 96 94 93 93 93 94 94 91 89 89 92 97 100 100 103 106 108 108 107 106 106
149 146 143 144 142 140 138 135 133 131 130 127 125 126 123 120 118 116 114 112 111 109 107 106 105 105 105 105 105 106 106 107 107 107 108 109 108 108 108 106 105 104 105 105 105 106 108 109 108 105 102 100 98 96 95 93 94 99 103 107 106 104 103 101 98 96 94 93 93 94 93 91 89 88 90 96 98 101 104 105 107 109 109 109 107
148 146 143 145 142 140 140 136 133 133 131 127 127 126 124 121 119 116 114 113 111 109 107 106 105 105 104 104 104 105 105 105 106 107 107 106 105 106 106 105 105 105 106 106 107 108 109 110 110 107 104 100 98 97 97 95 95 99 103 107 107 106 104 103 101 98 97 95 93 93 93 91 87 84 88 94 97 102 107 105 106 109 111 111 108
149 145 144 145 143 141 138 135 133 134 130 128 128 127 124 122 120 117 115 114 111 110 108 107 106 104 104 104 104 105 105 106 106 106 104 103 104 104 103 102 103 103 104 106 107 109 110 111 111 109 106 102 99 98 98 98 97 100 103 103 103 103 102 102 101 102 104 100 94 93 94 93 90 85 86 92 97 104 109 107 107 110 111 110 107
149 145 145 144 142 140 136 135 134 133 130 130 130 128 125 123 120 118 116 114 112 110 109 107 106 105 104 104 105 105 105 105 105 104 104 103 103 102 101 100 100 100 101 104 107 110 112 111 111 109 106 103 100 99 99 101 102 102 103 102 100 101 100 100 102 106 108 104 100 97 97 98 96 91 87 91 98 105 109 109 111 112 111 109 107
148 146 144 143 141 139 136 135 136 133 132 133 130 128 126 123 121 119 116 114 112 111 109 108 106 105 105 105 105 105 104 104 104 103 103 103 102 100 100 100 98 99 100 101 104 109 112 111 109 109 107 106 103 101 100 103 107 108 107 103 100 101 101 101 106 108 107 105 105 101 100 101 99 97 94 93 97 105 108 110 112 113 112 110 107
147 145 143 143 141 138 137 137 136 134 134 134 131 129 127 124 122 119 116 115 113 111 110 108 106 106 105 105 105 104 104 103 103 102 101 101 101 100 100 101 100 100 100 100 102 106 108 109 108 109 109 108 106 104 103 106 111 114 112 105 100 104 104 106 111 111 107 105 104 100 101 103 101 101 100 98 99 104 108 110 112 113 113 111 107
146 145 144 143 140 139 139 139 137 136 137 135 132 130 127 124 121 119 117 116 114 112 110 108 107 106 106 106 105 104 103 102 101 101 101 101 101 101 100 100 100 99 100 101 102 103 104 106 108 109 109 109 108 107 106 108 114 117 112 105 103 105 107 109 112 111 108 108 106 104 105 107 106 104 104 104 102 104 109 113 113 111 111 110 105
145 146 147 144 141 142 142 141 138 139 139 136 133 131 128 124 121 119 118 117 114 113 110 108 107 106 106 106 105 104 102 102 101 100 100 100 100 100 101 100 101 101 101 102 102 103 103 105 106 106 108 108 108 109 109 112 117 117 111 108 106 106 110 112 113 111 110 113 113 112 111 113 111 107 107 107 107 107 111 115 114 112 112 108 105
144 148 148 146 143 143 143 141 140 140 140 137 136 132 129 125 122 121 119 118 115 113 110 108 107 107 107 106 105 104 102 102 100 100 98 98 98 99 99 100 101 102 101 102 102 105 105 105 106 105 107 108 109 110 111 116 119 117 112 111 109 108 112 116 116 113 111 114 116 115 113 114 113 110 109 109 111 112 113 116 115 114 112 108 107
145 149 149 146 145 144 144 142 141 142 142 140 137 134 130 127 125 123 121 118 116 113 111 109 109 108 107 106 105 104 103 103 101 100 99 98 98 99 99 99 100 101 101 102 103 104 105 105 106 107 108 109 110 111 114 119 120 116 114 113 111 112 116 120 121 118 118 120 117 114 112 110 109 110 111 110 110 111 113 114 113 113 112 112 113
146 149 148 146 145 145 145 143 144 144 143 142 139 136 132 130 127 126 123 119 117 115 113 112 111 110 108 107 105 105 104 102 102 101 100 99 98 98 98 98 99 99 101 102 103 103 103 103 104 107 109 111 111 111 115 122 123 118 115 114 114 115 118 121 123 124 126 126 120 113 112 108 106 108 110 112 111 110 112 112 112 113 114 116 116
146 149 148 147 146 146 145 144 146 146 146 144 141 138 135 133 131 128 124 121 118 116 115 114 112 111 109 107 105 105 104 103 103 102 101 101 100 99 98 98 98 99 100 101 101 101 101 101 102 104 107 110 110 112 116 124 127 122 117 117 119 118 118 122 124 126 130 131 123 117 114 110 107 107 107 108 108 108 109 111 114 115 115 116 116
149 149 148 147 147 147 146 147 148 149 149 147 143 139 138 137 134 131 127 124 120 118 117 115 113 112 109 107 106 105 104 103 102 102 102 102 101 100 100 100 100 100 99 100 101 100 99 99 99 100 103 105 108 111 115 124 129 126 121 115 116 117 116 120 123 124 128 131 125 119 116 111 109 107 105 105 105 104 104 107 113 116 116 114 114
151 149 148 148 147 148 147 148 149 151 151 148 145 142 141 139 137 134 130 127 123 121 119 117 115 111 109 107 106 105 103 102 101 101 100 100 100 100 100 100 101 102 101 101 101 100 99 98 96 96 98 101 104 107 113 124 130 127 122 114 113 120 120 115 119 124 125 126 124 122 117 113 111 108 106 105 105 103 102 103 106 110 113 114 115
150 149 148 148 148 149 149 150 151 153 153 149 146 145 144 142 139 136 133 130 128 125 121 119 116 111 108 106 106 106 104 103 103 101 100 100 99 100 101 100 101 101 101 101 100 100 99 97 96 94 94 95 99 103 112 124 128 125 118 113 116 125 131 118 116 125 124 125 126 126 122 117 114 111 110 108 106 104 103 102 102 105 107 109 112
149 150 149 149 150 150 150 151 153 154 154 150 149 148 146 144 141 137 134 133 131 128 125 121 116 113 108 106 106 106 105 103 101 102 103 103 102 100 99 100 100 99 97 96 95 95 95 94 93 92 92 93 97 101 110 123 127 122 111 108 114 124 135 126 117 125 128 129 132 130 127 124 122 118 116 114 111 108 105 103 102 102 103 103 106
148 150 150 150 151 151 152 153 156 157 156 154 152 149 148 146 142 139 136 135 134 131 128 124 119 117 113 110 107 106 104 100 97 99 101 102 103 101 99 99 98 97 95 93 92 91 90 89 86 87 90 94 98 100 109 123 127 120 111 110 110 118 134 128 119 126 132 133 132 134 133 131 129 125 122 119 116 113 109 106 104 103 103 102 102
148 150 151 152 152 153 155 156 158 160 159 158 154 151 150 148 145 141 139 137 136 133 130 127 126 124 120 117 114 109 107 102 97 97 98 97 99 100 100 101 98 95 95 95 94 93 93 90 85 83 87 93 100 103 109 121 127 123 117 114 109 117 131 125 119 124 129 132 133 137 137 135 135 131 129 125 121 118 116 112 108 107 106 105 103
150 152 153 153 154 157 157 158 161 162 161 159 157 154 152 151 148 145 143 141 138 136 134 132 132 131 127 125 117 109 109 108 102 98 99 100 99 98 98 100 100 96 94 97 98 99 100 97 92 87 87 92 100 107 111 119 124 122 120 118 116 125 132 125 127 130 125 130 135 138 139 138 138 136 134 129 126 122 118 114 111 109 108 107 107
153 155 156 156 159 160 159 161 163 162 163 162 159 157 155 154 152 149 147 145 144 142 140 138 137 135 134 131 122 120 122 117 111 106 103 104 104 100 98 101 105 104 102 103 103 103 101 95 90 88 91 94 101 108 114 121 123 123 124 122 122 127 129 130 140 141 125 129 135 136 139 141 139 139 137 132 129 126 120 117 114 112 111 110 111
157 159 159 160 163 161 161 164 162 163 167 164 162 160 158 158 154 153 150 150 150 148 147 143 142 140 140 136 132 142 147 131 125 122 108 99 105 107 106 109 113 113 111 110 106 99 95 92 85 86 97 101 104 109 116 127 131 133 132 125 127 133 132 136 145 142 130 132 135 138 141 143 142 142 140 136 132 130 128 124 120 118 115 115 115
160 162 160 164 166 162 164 166 162 166 170 166 165 162 160 160 157 154 154 156 155 154 153 148 146 147 146 140 139 151 154 141 138 142 123 100 107 116 117 118 119 117 114 112 107 100 95 91 91 92 97 102 103 111 122 134 140 143 142 133 133 141 140 144 145 133 131 134 137 142 145 145 146 146 143 141 139 137 138 135 131 127 124 122 120
162 164 162 165 166 164 167 165 165 171 170 168 168 164 162 162 160 158 158 161 160 161 158 151 152 153 151 145 144 154 155 148 147 151 145 116 114 122 124 122 119 118 112 110 111 112 106 92 98 101 94 93 92 108 127 143 156 158 156 149 147 149 150 157 145 126 129 136 141 144 147 149 148 150 150 148 148 146 146 146 142 138 135 130 127
163 166 164 165 167 167 169 166 169 171 169 171 169 166 166 165 165 163 164 167 166 164 159 157 164 163 160 162 166 161 155 154 149 150 159 162 146 132 130 133 134 125 112 115 115 117 112 95 99 99 90 77 66 82 92 129 192 190 175 165 165 163 160 162 148 133 134 137 144 148 151 153 153 154 156 157 156 153 151 152 151 148 145 140 137
164 168 166 166 168 169 170 168 170 170 171 175 172 170 170 169 169 167 169 171 169 167 161 165 174 174 173 178 181 172 161 157 152 153 168 180 172 157 144 149 160 142 118 125 123 117 111 105 105 97 95 86 52 66 59 31 262 217 190 179 177 174 165 158 149 142 142 141 144 150 153 155 157 158 159 161 159 158 156 155 156 155 152 150 148
165 167 166 167 170 171 171 170 170 170 172 177 176 174 172 172 172 171 175 173 171 172 169 171 175 178 179 177 176 175 176 169 167 174 175 174 170 167 156 156 163 146 128 134 126 118 111 113 116 101 113 141 130 109 63 94 83 179 186 182 181 179 169 158 145 142 145 147 147 148 154 155 157 159 160 163 163 163 161 159 161 161 160 162 160
166 165 167 170 172 172 172 171 171 171 172 177 180 178 172 174 177 174 181 181 177 176 180 185 183 182 180 177 176 178 194 185 179 185 179 168 165 161 156 156 153 146 145 137 122 116 115 117 113 98 115 136 145 164 161 141 120 89 140 168 176 179 172 161 144 142 147 148 148 149 154 155 155 159 162 166 170 172 169 166 165 167 168 169 170
168 166 167 172 173 173 174 173 173 173 173 176 181 181 172 177 183 176 182 189 186 180 185 193 192 188 182 178 178 175 186 185 184 186 175 164 164 156 153 151 143 146 148 136 129 125 124 122 109 94 107 122 134 157 164 161 181 91 81 162 177 180 175 165 150 147 148 145 144 148 155 156 155 161 167 169 174 178 177 175 172 173 175 175 177
169 169 169 173 174 174 175 175 175 174 175 176 181 182 173 179 187 180 184 190 188 186 189 193 190 185 180 175 178 174 167 171 179 178 165 159 160 151 155 158 140 141 139 130 139 131 127 132 127 120 122 115 112 139 165 169 181 222 357 175 178 182 182 171 160 155 147 144 141 146 154 156 157 161 170 175 178 181 182 182 182 180 181 182 183
170 172 172 173 175 175 175 178 177 175 176 179 183 183 175 180 188 184 187 190 187 189 190 190 187 182 181 179 180 179 163 158 167 166 159 158 157 149 160 170 147 140 138 132 140 131 128 141 144 151 135 111 99 122 165 163 138 332 322 14 131 181 184 176 166 159 147 145 141 144 150 153 159 162 170 179 182 186 187 187 190 189 188 189 187
171 174 173 174 176 175 175 178 178 177 178 180 184 183 177 181 187 183 186 191 187 188 187 184 188 190 189 188 185 183 166 152 159 160 158 158 158 159 165 169 155 146 145 139 140 136 136 142 144 164 139 120 107 93 156 165 140 13 323 332 3 158 172 176 171 160 148 147 142 140 144 148 157 160 168 179 185 191 193 193 194 195 197 195 192
171 173 174 175 176 176 176 178 179 180 179 180 183 180 179 184 186 182 185 192 186 186 187 184 192 193 190 190 190 189 173 154 153 153 157 161 162 165 164 163 159 151 149 151 148 142 152 133 133 155 140 122 116 90 157 182 172 288 326 325 37 86 158 173 171 160 149 147 141 136 140 142 147 152 163 175 184 191 195 198 198 200 201 200 198
171 172 176 177 177 177 178 178 180 181 180 182 183 179 181 188 187 183 187 192 187 186 185 188 193 188 186 190 193 193 182 167 162 157 157 164 165 166 166 164 168 163 157 166 176 175 171 148 132 144 132 120 139 127 164 189 179 183 260 129 53 30 144 167 164 153 144 140 139 139 140 139 138 139 152 167 182 190 194 199 201 203 202 204 205
172 174 176 178 178 179 179 179 182 183 182 184 185 182 183 189 188 185 188 189 187 186 184 190 193 187 188 195 199 198 189 180 176 171 165 168 172 174 174 169 174 177 166 171 186 191 192 177 144 143 149 139 170 179 175 191 181 175 194 143 16 33 138 158 157 146 138 131 135 143 145 142 140 139 142 156 172 182 189 196 198 199 201 206 209
173 176 176 178 180 181 179 181 183 183 184 184 184 185 186 188 186 184 189 188 187 188 186 190 194 191 195 201 208 206 195 186 183 179 173 170 176 179 178 173 178 183 175 182 187 187 200 185 157 168 182 142 161 174 164 175 173 182 199 95 14 67 133 150 150 142 138 130 132 142 149 145 141 143 144 148 158 169 179 186 189 193 197 203 207
174 177 178 179 180 180 179 182 183 183 185 185 183 185 185 187 187 186 193 191 188 190 188 192 194 193 200 208 211 207 197 190 185 184 179 172 178 183 182 183 189 192 184 188 188 186 204 193 168 173 177 147 153 167 162 163 164 176 183 50 56 86 130 148 146 141 139 134 133 138 148 146 139 143 149 150 152 163 173 178 183 186 190 195 199
176 177 178 180 181 180 180 182 182 182 186 185 183 183 184 186 186 188 195 192 188 189 192 197 193 192 203 210 209 205 201 192 186 187 181 173 182 191 189 192 199 200 190 189 191 193 195 183 171 169 168 166 161 168 172 172 181 190 179 150 129 90 123 148 147 145 145 145 142 141 149 150 145 143 147 152 151 159 169 172 177 181 184 186 189
176 177 179 180 181 179 179 179 179 182 185 183 180 179 182 184 183 186 190 189 188 189 194 199 193 193 202 206 207 207 204 195 188 188 183 177 182 192 191 191 198 202 196 196 200 201 195 183 180 177 173 174 174 173 174 174 182 187 184 153 133 112 123 144 150 153 154 160 157 153 157 155 155 151 145 147 147 149 157 164 169 174 181 185 187
174 177 178 179 179 179 178 177 178 181 184 182 178 178 180 181 183 186 186 185 188 191 194 197 195 197 201 202 207 206 204 199 192 190 188 184 182 191 199 194 197 201 198 205 206 202 200 193 190 191 184 176 181 178 172 178 173 163 165 172 158 152 145 149 163 165 162 168 170 171 167 162 162 157 147 144 142 138 142 157 165 166 176 184 189
174 176 177 179 179 179 179 177 177 180 184 183 179 179 181 182 184 187 186 183 187 194 196 194 195 200 202 201 204 204 203 203 198 194 195 191 185 192 205 203 206 204 199 208 211 198 189 187 186 187 183 174 184 182 176 185 176 164 166 162 168 175 173 180 182 178 175 173 176 177 171 166 167 159 150 147 143 140 141 147 153 155 167 179 186
174 174 176 179 180 180 180 178 177 179 183 183 181 182 184 186 186 187 189 187 188 195 197 192 193 200 205 204 202 203 205 206 204 199 199 198 192 192 201 208 214 210 203 208 210 198 186 185 185 186 183 179 188 186 184 193 182 176 171 146 204 184 213 235 213 200 192 180 174 170 162 161 166 162 155 153 152 153 156 152 150 154 167 176 177
173 174 174 177 180 183 183 180 179 180 182 184 183 182 184 187 188 188 191 194 194 195 199 197 191 196 206 204 200 202 207 208 207 202 201 203 198 195 201 210 213 211 209 210 208 205 201 195 195 198 187 181 192 194 196 202 191 181 178 159 152 138 344 246 226 224 204 187 175 165 158 156 161 164 162 163 164 165 169 164 160 168 175 172 164
174 176 175 177 179 184 186 185 182 182 183 185 184 181 182 186 187 188 190 191 192 193 199 203 197 197 201 200 199 201 205 208 208 205 204 206 203 199 205 212 211 211 214 213 210 209 209 203 201 203 189 180 194 195 195 203 196 189 189 166 110 137 231 210 200 226 202 188 175 158 156 157 159 165 168 170 171 171 172 170 173 180 182 179 166
177 179 179 179 179 181 184 185 184 183 184 185 185 183 182 184 185 187 190 187 186 189 195 199 199 199 197 196 198 201 205 209 209 208 206 206 206 204 206 212 213 213 214 215 214 208 206 206 203 201 191 186 195 193 196 201 192 187 184 167 149 217 224 157 149 206 176 169 167 156 153 155 157 164 170 174 174 173 171 171 179 184 180 180 176
178 179 180 181 181 181 181 182 182 183 184 185 185 184 184 186 186 187 192 191 187 189 193 195 197 198 196 196 197 200 206 211 210 210 210 208 208 208 209 212 213 213 212 215 217 209 205 205 202 198 192 189 193 193 194 183 176 187 190 183 203 282 148 147 158 176 116 132 156 155 155 158 158 165 173 178 178 175 170 164 171 179 176 175 179
178 178 180 182 184 184 182 181 182 182 183 185 185 186 186 187 188 188 193 197 193 190 192 194 195 197 198 197 198 201 207 212 212 211 210 209 209 210 211 211 212 213 212 215 217 206 201 202 198 196 194 195 198 197 194 185 184 196 199 196 214 227 142 127 137 156 137 120 146 152 160 168 174 177 177 183 189 185 174 164 166 175 179 181 189
180 180 181 183 185 186 186 184 183 184 184 186 186 188 189 188 189 190 193 199 199 193 192 193 194 196 199 200 201 203 206 211 212 210 210 210 209 211 211 209 210 214 213 214 217 206 202 205 199 194 194 199 204 199 194 200 200 195 194 194 195 198 164 111 113 139 130 140 155 152 166 173 183 186 183 186 193 190 177 170 170 177 182 190 200
181 181 181 183 185 187 188 187 187 187 186 187 188 189 191 191 191 192 194 198 199 195 192 192 193 197 200 202 204 204 204 208 209 208 210 210 209 211 212 209 209 214 215 213 214 206 201 203 199 195 197 203 206 200 194 200 199 194 196 191 179 183 176 156 176 158 127 137 154 162 176 180 187 194 191 191 194 189 180 179 179 182 187 194 204
180 180 180 182 184 186 188 188 189 189 188 189 189 190 192 193 193 194 195 196 197 196 192 190 193 198 200 201 205 205 203 205 207 207 209 210 209 210 214 213 210 213 216 215 213 205 198 198 197 196 201 206 205 199 195 196 194 195 200 193 182 183 183 187 197 188 170 162 159 166 180 181 185 194 193 196 200 190 181 187 191 194 198 199 206